Satellite-Ground Cal/Val Site Overpasses Predictions

Prediction of Satellite NPP Overpassing Cal/Val Site: Antarctic Dome C

Ground Cal/Val Site Location: Latitude: -75.10, Longitude: 123.35; Satellite-Ground Site NADIR distance within 100 km.

Table of predicted overpasses for the next 14.0 days since TLE Epoch: 2/11/2012
Interval Starting Time Ending Time Minimum Distance Time Minimum Distance (km)
1 02/11/2012 15:06:52 02/11/2012 15:07:02 02/11/2012 15:06:57 93.05
2 02/12/2012 14:47:52 02/12/2012 14:48:21 02/12/2012 14:48:07 18.24
3 02/14/2012 07:30:42 02/14/2012 07:31:11 02/14/2012 07:30:57 3.49
4 02/17/2012 14:54:10 02/17/2012 14:54:39 02/17/2012 14:54:25 18.84
5 02/18/2012 14:35:29 02/18/2012 14:35:42 02/18/2012 14:35:35 88.13
6 02/19/2012 07:37:01 02/19/2012 07:37:28 02/19/2012 07:37:14 38.50
7 02/20/2012 07:18:15 02/20/2012 07:18:35 02/20/2012 07:18:25 71.54
8 02/22/2012 15:00:29 02/22/2012 15:00:53 02/22/2012 15:00:41 56.28
9 02/23/2012 14:41:40 02/23/2012 14:42:05 02/23/2012 14:41:52 52.89
10 02/24/2012 07:43:22 02/24/2012 07:43:41 02/24/2012 07:43:31 74.02


NCC Satellite Cal/Val Overpasses Prediction Service
